Tracking 28794 objects as of 19-Apr-2024
HD Live streaming from Space Station
objects crossing your sky now

DELTA 1 DEB

Track DELTA 1 DEB now!
10-day predictions


NORAD ID: 12257
Int'l Code: 1978-026DA
Perigee: 814.9 km
Apogee: 962.0 km
Inclination: 99.2 °
Period: 102.6 minutes
Semi major axis: 7259 km
RCS: 0.048 m2 (small)
Launch date: March 5, 1978
Source: United States (US)
Launch site: AIR FORCE WESTERN TEST RANGE (AFWTR)

Note: This is SATELLITE DEBRIS
Your satellite tracking list
Your tracking list is empty




NASA's NSSDC Master Catalog

Two Line Element Set (TLE):
1 12257U 78026DA  24110.58415336  .00001509  00000-0  94735-3 0  9999
2 12257  99.2449  39.4506 0101301 294.5021  64.5609 14.03607538205635
Source of the keplerian elements: AFSPC